Retour au catalogue

STARLINK-31764

ActifCommunicationsVLEO
NORAD 59653·PAYLOAD·🇺🇸 United States

Lancé May 3, 2024 depuis Cape Canaveral Space Force Station

Loading…

Prochains Passages (prochaines 24 heures)

TLE

FraisSource: CelesTrak SupGP

Époque: Sep 14, 2026, 21:17 UTC

1 59653C 24082Y   26257.88729167 -.00037006  00000+0 -13405-2 0  2573
2 59653  43.0001 151.1386 0001306 265.6372 299.8253 15.27593383    19

Suivez STARLINK-31764 en temps réel avec AllMySat

Download on the App Store